map of MCP home
Great Circle Mapper logo
MCP - Airport
Location
City:  Macapá, Pará, Brazil
ICAO / IATA:SBMQ / MCP

Details
Type:Airport (Aerodrome, Airfield)
Use:Public/Civil, International (customs port of entry)
Latitude:0°03'02"N (0.050664)
Longitude:51°04'20"W (-51.072177)
Datum:WGS 1984
Elevation:56 ft (17 m)
Variation:19.27°W (WMM2015 magnetic declination)
-0.04° annual change
Runways:1
Longest:6890 × 148 ft (2100 × 45 m), paved

Time
Time Zone:UTC-3
Local Time:

Weather
METAR:SBMQ 280300Z 02007KT 9999 SCT017 27/25 Q1013
TAF:SBMQ 272200Z 2800/2824 09005KT 9999 FEW015 TN25/2806Z TX35/2817Z
BECMG 2803/2805 34003KT
BECMG 2811/2813 05005KT BKN020
BECMG 2818/2820 07010KT SCT025 FEW030TCU
BECMG 2821/2823 09005KT FEW017
RMK PEH

Related Locations
Nearby:
Farthest:GEB: 12414 mi / 19979 km
Gebe, Gebe Island, ML, ID

Find:

   beyond  
but within

Other Information
Maps:
NOTAMs:
Links:
Sources:

  
flag of Brazil
flag of Pará
  

Sectional Chart

Flight Planning
at skyvector.com

Satellite Image

Google Maps Satellite view

 

Copyright © 2004-2015 Karl L. Swartz. All rights reserved.
The Great Circle Mapper name and logo are trademarks of the Great Circle Mapper.
All other trademarks mentioned herein belong to their respective owners.
Please see credits for attibutions and further copyright information.

  Follow gcmap on Facebook Follow gcmap on Twitter Follow gcmap on Google+

hCard Microformat

Geo Microformat